Freeport, Bahamas

9:21 PM EDT on October 23, 2017 (GMT -0400)
Grand Bahama International

Weather History for MYGF - August, 2014

Change the Weather History Date:

Monday, August 18, 2014

  Actual Average Record
Temperature  
Mean Temperature 86 °F -  
Max Temperature 93 °F 86 °F 95 °F (1998)
Min Temperature 78 °F 76 °F 75 °F (2008)
Cooling Degree Days 20    
Growing Degree Days 36 (Base 50)    
Moisture  
Dew Point 78 °F    
Average Humidity 72    
Maximum Humidity 94    
Minimum Humidity 58    
Precipitation  
Precipitation 0.00 in - - ()
Sea Level Pressure  
Sea Level Pressure 30.02 in    
Wind  
Wind Speed 2 mph ()    
Max Wind Speed 6 mph    
Max Gust Speed -    
Visibility 6.6 miles    
Events      
Averages and records for this station are not official NWS values.
T = Trace of Precipitation, MM = Missing Value Source: Averaged Metar Reports

Daily Weather History Graph

Daily Weather History Graph

Search for Another Location

Airport or City:

Trip Planner

Search our weather history database for the weather conditions in past years. The results will help you decide how hot, cold, wet, or windy it might be!

Date:

Astronomy

Aug. 18, 2014 Rise Set
Actual Time 6:48 AM EDT 7:48 PM EDT
Civil Twilight 6:24 AM EDT 8:12 PM EDT
Nautical Twilight 5:55 AM EDT 8:41 PM EDT
Astronomical Twilight 5:26 AM EDT 9:10 PM EDT
Moon 1:00 AM EDT (8/18) 2:41 PM EDT (8/18)
Length of Visible Light 13h 48m
Length of Day
13h 00m
Last Quarter, 38% of the Moon is Illuminated
Aug 18
Last Quarter
Aug 25
New
Sep 2
First Quarter
Sep 8
Full
Sep 15
Last Quarter

Hourly Weather History & Observations

Time (EDT) Temp. Heat Index Dew Point Humidity Pressure Visibility Wind Dir Wind Speed Gust Speed Precip Events Conditions
7:00 AM 78.8 °F - 75.2 °F 89% 30.03 in 6.2 mi Calm Calm - N/A   Partly Cloudy
8:00 AM 81 °F - 78 °F 88% 30.04 in 7 mi Calm Calm - -   Haze
8:00 AM 80.6 °F 88.1 °F 78.8 °F 94% 30.04 in 5.6 mi Calm Calm - N/A   Partly Cloudy
9:00 AM 86.0 °F 99.3 °F 78.8 °F 79% 30.04 in 6.2 mi SE 3.5 mph - N/A   Partly Cloudy
10:00 AM 87.8 °F 102.5 °F 78.8 °F 75% 30.05 in 6.2 mi SSE 4.6 mph - N/A   Scattered Clouds
11:00 AM 89 °F - 78 °F 63% 30.06 in 8 mi SE 4.6 mph - -   Haze
11:00 AM 87.8 °F 102.5 °F 78.8 °F 75% 30.06 in 6.2 mi SE 4.6 mph - N/A   Scattered Clouds
12:00 PM 89.6 °F 102.2 °F 77.0 °F 66% 30.06 in 6.2 mi SSW 4.6 mph - N/A   Scattered Clouds
1:00 PM 89.6 °F 102.2 °F 77.0 °F 66% 30.04 in 6.2 mi ESE 4.6 mph - N/A   Scattered Clouds
2:00 PM 90 °F - 80 °F 65% 30.02 in 8 mi South 5.8 mph - -   Haze
2:00 PM 89.6 °F 108.2 °F 80.6 °F 75% 30.02 in 6.2 mi South 5.8 mph - N/A   Mostly Cloudy
3:00 PM 89.6 °F 104.7 °F 78.8 °F 70% 29.99 in 6.2 mi South 4.6 mph - N/A   Mostly Cloudy
4:00 PM 89.6 °F 104.7 °F 78.8 °F 70% 29.98 in 6.2 mi SSE 3.5 mph - N/A   Scattered Clouds
5:00 PM 90 °F - 77 °F 58% 29.97 in 8 mi East 3.5 mph - -   Haze
5:00 PM 89.6 °F 102.2 °F 77.0 °F 66% 30.08 in 6.2 mi East 3.5 mph - N/A   Scattered Clouds
6:00 PM 89.6 °F 102.2 °F 77.0 °F 66% 29.98 in 6.2 mi Variable 2.3 mph - N/A   Mostly Cloudy
7:00 PM 87.8 °F 99.7 °F 77.0 °F 70% 29.98 in 6.2 mi SSE 3.5 mph - N/A   Scattered Clouds
8:00 PM 86 °F - 76 °F 67% 29.99 in 8 mi Calm Calm - -   Haze
8:00 PM 86.0 °F 96.9 °F 77.0 °F 74% 29.98 in 6.2 mi Calm Calm - N/A   Scattered Clouds